STARLINK-5132 (54007 NORAD) Tracking and Keplerian Element Data

This shows tracking and keplerian element data for the satellite.

Feedback or suggestion? Click here.




ElementValue
Catalog54007
NameSTARLINK-5132
Epoch Orbit130
Epoch Day324.91667824
Epoch Year2022
RAAN225.4624
Inclination53.2167
Eccentricity0.0001619
Argument of Perigee93.4703
Mean Anonmoly185.865
Mean Motion15.49865277
Decay Rate-0.00033032
L11 54007U 22125AV 22324.91667824 -.00033032 00000+0 -57687-3 0 9992
L22 54007 53.2167 225.4624 0001619 93.4703 185.8650 15.49865277 1301



Live tracking and technical data element details for STARLINK-5132 (NORAD 54007). STARLINK-5132 can be tracked NOW for your location showing map with azimuth and elevation plus other details from your city location.







IsCatalogInMostPopularTable: catalog: 54007, numindb: 2
Update: records affected: 1



GetName: 54007 STARLINK-5132

Hit Count: updated at: Fri, 09 Dec 2022 18:59:45 GMT